SL-8 R/B, 3131

Orbit data source: Space-Track

SL-8 R/B, 3131 is space debris in LEO originally from a launch on Tue, 20 Feb 1968 UTC launched from the Plesetsk Missile And Space Complex (PKMTR). Debris objects in space refer to the collection of defunct objects orbiting the Earth. Examples of debris include non-operational satellites, rocket bodies, and fragments generated from explosions, collisions, or faulty payload assembly.

Loading next visibility...
Identifier
3131, 1968-011B
Orbit
LEO
Country
Flag of CISCIS
Related business
Manufacturer
Yuzhnoe
Mission
Spacecraft
Bus & Motor
S3, Unknown motor
Mass
1,434 kg wet, 1,434 kg dry
Launch date (UTC)
1968-02-20 (58 years ago)
Launch vehicle
Unknown
Launch site
Plesetsk Missile And Space Complex (PKMTR)
Object type
Payload
Rocket body
Debris
Shape & HBR
Unknown
Radar Cross Section
Large (>1 m²)

Expand to show TLE details & history
Last TLE update: 23 hours ago

TLE from 23 hours ago
0 SL-8 R/B
1 03131U 68011B   25347.84433386 -.00000192  00000-0 -44198-3 0  9997
2 03131  74.0525  30.9073 0015475 272.5961  87.3356 13.18027339780935
Epoch: 2025-12-13T20:15Z
TLE epoch observation values (Epoch: 2025-12-13T20:15:50.445Z)
Latitude
-0.00005°
Longitude
4.18132°
Altitude
1,194.205 km
Speed
7.257 km/s
True Right ascension
02h 03m 37s
True Declination
0° 00' 00"
Sunlit
Object was in full shadow at epoch
Visualization orbit readout
Latitude
Unknown
Longitude
Unknown
Altitude
Unknown
Speed
Unknown
Apparent Right ascension
Unknown
Apparent Declination
Unknown
Sunlit
N/A
Visualization observer readout
Local Sidereal Time
17:34:02
Azimuth
Unknown
Elevation
Unknown
Doppler factor
Unknown
Orbital elements
Apogee altitude
1,201.731 km
Perigee altitude
1,178.308 km
Semi-major axis
7,568.156 km
Eccentricity
0.00155
Inclination
74.0525°
RAAN
30.9073°
Arg. of periapsis
272.5961°
True anomaly
87.51275°
Mean anomaly
87.3356°
Eccentric anomaly
87.42418°
Mean motion
3.29654 °/min
Orbital period
109.21 mins
BSTAR
-0.00044198
Loading maneuver chart data...
Computing Atmospheric mass density...
Loading historical data...
Loading historical data...
Loading historical data...
Loading historical data...
Loading historical data...
Loading historical data...
Loading historical data...
Other satellites on launch #11 in the year 1968 (1968-02-20 UTC)

Documentation

Showing up to 5 results
|